Startpagina
METAR-TAF:

METAR-TAF

Vliegvelden :

Vlieland Heliport

Vlieland, Nederland

breedte: 53-15N, lengte: 004-55E, hoogte: 11 m

Actueel weer

Dit bericht is 24 minuten geleden gemaakt, om 19:55 UTC
Wind 27 kt uit het oosten
Temperatuur 5°C
Vochtigheid 81%
Druk 1021 hPa
Zicht 10 km of meer

METAR: EHVL 191955Z AUTO 08027KT 9999 NCD 05/02 Q1021 BLU

Tijdstip: 21:19 (20:19 UTC)


TAF: ontbreekt

Waarnemingen en weersverwachtingen van meer dan 4000 vliegvelden (METAR en TAF).

De beschikbare stations zijn de gele en rode punten op de kaart.

Ga met uw muis naar het station om de naam te zien.

Klik dan om waarnemingen en weersverwachtingen te zien.

kaart wijzigen: klik op de groene knoppen met een zwart kruis om in te zoomen, op de groene knop met een streepje om uit te zoomen of op de groene pijlen voor aangrenzende kaarten.


METAR-TAF: